Location: Newark
(55.7678°N, 23.6664°E)
Time: 19:12:01
(UTC+00:00)

N. Korean satellite - Pass Details

Date: 29 September 2020
Orbit: 452 x 505 km, 97.2° (Epoch: 28 October)

Event Time Altitude Azimuth Distance (km) Brightness Sun altitude
Rises 03:30:26 0° 20° (NNE) 2,601 10.7 -8.5°
Reaches altitude 10° 03:32:43 10° 32° (NNE) 1,703 9.9 -8.1°
Maximum altitude 03:36:00 30° 95° (E) 896 8.9 -7.7°
Drops below altitude 10° 03:39:12 10° 159° (SSE) 1,663 9.5 -7.2°
Sets 03:41:25 0° 170° (S) 2,527 10.3 -6.9°
